Home > Weather > Saratov > Past weeks

Flag for Russia Past Weather in Saratov, Russia — Yesterday and Last 2 Weeks

Now
82 °F

Sunny.


Feels Like: 82 °F
Forecast: 67 / 82 °F
Wind: 10 mph from Northwest

Location: Saratov / Tsentralny

Current Time: Jun 25, 2016 at 1:30:27 PM

Latest Report: Jun 25, 2016 at 1:00 PM


Visibility: 10 mi

Pressure: 30.07 "Hg

Humidity: 40%

Dew Point: 55 °F

Location of SaratovLocation

Past Weather in Saratov — Graph

°F

Saratov Temperature Yesterday

Maximum temperature yesterday: 82 °F (at 3:00 PM)
Minimum temperature yesterday: 66 °F (at 3:00 AM)
Average temperature yesterday: 74 °F

High & Low Weather Summary for the Past Weeks

 TemperatureHumidityPressure
High90 °F (Jun 18, 2:00 PM)100% (Jun 14, 6:00 AM)30.24 "Hg (Jun 14, 6:00 AM)
Low57 °F (Jun 11, 3:30 AM)27% (Jun 11, 4:00 PM)29.89 "Hg (Jun 13, 1:00 PM)
Average74 °F59%30.04 "Hg
* Reported Jun 10 12:00 PM — Jun 25 12:30 PM, Saratov, Weather by CustomWeather, © 2016

Note: Actual official high and low records may vary slightly from our data, if they occured in-between our weather recording intervals... More about our weather records

Advertising

Saratov Weather History for the Previous 24 Hours

Scroll right to see more
 ConditionsComfort  
Time TempWeatherWind HumidityBarometerVisibility
12:30 PM
Sat, Jun 25
81 °FSunny.6 mph39%30.07 "Hg10 mi
12:00 PM81 °FSunny.6 mph39%30.07 "Hg10 mi
11:30 AM79 °FSunny.8 mph48%30.07 "Hg10 mi
11:00 AM79 °FSunny.6 mph48%30.07 "Hg10 mi
10:30 AM77 °FSunny.13 mph51%30.07 "Hg10 mi
10:00 AM77 °FSunny.10 mph51%30.07 "Hg10 mi
9:30 AM75 °FSunny.8 mph61%30.07 "Hg10 mi
9:00 AM75 °FSunny.10 mph61%30.07 "Hg10 mi
8:30 AM72 °FSunny.8 mph65%30.07 "Hg10 mi
8:00 AM72 °FSunny.8 mph65%30.07 "Hg10 mi
7:30 AM72 °FSunny.8 mph65%30.07 "Hg10 mi
7:00 AM72 °FSunny.8 mph65%30.07 "Hg10 mi
6:30 AM70 °FSunny.6 mph64%30.07 "Hg10 mi
6:00 AM70 °FSunny.8 mph64%30.07 "Hg10 mi
5:30 AM66 °FSunny.8 mph68%30.07 "Hg10 mi
5:00 AM66 °FSunny.8 mph68%30.07 "Hg10 mi
4:30 AM66 °FSunny.8 mph68%30.07 "Hg10 mi
4:00 AM66 °FSunny.8 mph68%30.07 "Hg10 mi
3:00 AM66 °FClear.6 mph68%30.07 "Hg10 mi
2:00 AM66 °FClear.6 mph73%30.07 "Hg10 mi
1:00 AM66 °FClear.6 mph73%30.07 "Hg10 mi
12:00 AM68 °FClear.8 mph69%30.07 "Hg10 mi
11:00 PM
Fri, Jun 24
68 °FClear.6 mph64%30.07 "Hg10 mi
10:30 PM68 °FClear.6 mph64%30.07 "Hg10 mi
10:00 PM68 °FClear.6 mph64%30.07 "Hg10 mi
9:30 PM70 °FClear.6 mph57%30.07 "Hg10 mi
9:00 PM70 °FClear.6 mph57%30.07 "Hg10 mi
8:30 PM73 °FClear.10 mph50%30.04 "Hg10 mi
8:00 PM73 °FSunny.10 mph50%30.04 "Hg10 mi
7:30 PM77 °FSunny.8 mph44%30.04 "Hg10 mi
7:00 PM77 °FSunny.13 mph44%30.04 "Hg10 mi
6:30 PM79 °FBroken clouds.13 mph42%30.04 "HgN/A
6:00 PM79 °FBroken clouds.13 mph42%30.04 "HgN/A
5:30 PM81 °FBroken clouds.13 mph37%30.04 "HgN/A
5:00 PM81 °FSunny.13 mph37%30.04 "Hg10 mi
4:30 PM81 °FSunny.10 mph39%30.04 "Hg10 mi
4:00 PM81 °FSunny.10 mph39%30.04 "Hg10 mi
3:30 PM82 °FSunny.8 mph37%30.04 "Hg10 mi
3:00 PM82 °FSunny.10 mph37%30.04 "Hg10 mi
2:30 PM79 °FSunny.10 mph37%30.07 "Hg10 mi
2:00 PM79 °FSunny.10 mph37%30.07 "Hg10 mi
1:30 PM77 °FSunny.13 mph42%30.07 "Hg10 mi
1:00 PM77 °FSunny.8 mph42%30.07 "Hg10 mi
Weather by CustomWeather, © 2016

See weather overviewHow to use our weather pages